Weather History for Cut Bank, MT

Change the Weather History Date:

Friday, January 25, 2013

  Actual Average Record
Temperature  
Mean Temperature 44 °F 23 °F  
Max Temperature 54 °F 33 °F 62 °F (2006)
Min Temperature 34 °F 12 °F -39 °F (1957)
Degree Days  
Heating Degree Days 21 42  
Month to date heating degree days 978 1075  
Since 1 July heating degree days 4503 4665  
Cooling Degree Days 0 0  
Month to date cooling degree days 0 0  
Year to date cooling degree days 0 0  
Moisture  
Dew Point 27 °F    
Average Humidity 59    
Maximum Humidity 82    
Minimum Humidity 35    
Precipitation  
Precipitation 0.00 in 0.00 in 0.18 in (1971)
Month to date precipitation 0.41 0.16  
Year to date precipitation 0.41 0.16  
Snow  
Snow 0.00 in - - ()
Snow Depth 0.00 in    
Sea Level Pressure  
Sea Level Pressure 29.90 in    
Wind  
Wind Speed 17 mph (WSW)    
Max Wind Speed 33 mph    
Max Gust Speed 41 mph    
Visibility 10 miles    
Events      
T = Trace of Precipitation, MM = Missing Value Source: NWS Daily Summary

Daily Weather History Graph

Daily Weather History Graph

Search for Another Location

Airport:

Trip Planner

Search our weather history database for the weather conditions in past years. The results will help you decide how hot, cold, wet, or windy it might be!

Date:

Astronomy

Jan. 25, 2013 Rise Set
Actual Time 8:07 AM MST 5:17 PM MST
Civil Twilight 7:32 AM MST 5:51 PM MST
Nautical Twilight 6:54 AM MST 6:30 PM MST
Astronomical Twilight 6:17 AM MST 7:07 PM MST
Moon 4:18 PM MST (1/25) 6:49 AM MST (1/25)
Length of Visible Light 10h 19m
Length of Day
9h 10m
Waxing Gibbous, 98% of the Moon is Illuminated
Jan 25
Waxing Gibbous
Jan 26
Full
Feb 3
Last Quarter
Feb 10
New
Feb 17
First Quarter

Hourly Weather History & Observations

Time (MST) Temp. Windchill Dew Point Humidity Pressure Visibility Wind Dir Wind Speed Gust Speed Precip Events Conditions
12:56 AM 37.0 °F 26.7 °F 12.9 °F 37% 29.99 in 10.0 mi WSW 19.6 mph - N/A   Clear
1:56 AM 37.9 °F 28.2 °F 21.9 °F 53% 29.96 in 10.0 mi WSW 18.4 mph 29.9 mph N/A   Clear
2:56 AM 41.0 °F 30.7 °F 23.0 °F 49% 29.95 in 10.0 mi WSW 25.3 mph 35.7 mph N/A   Clear
3:56 AM 41.0 °F 30.2 °F 24.1 °F 51% 29.93 in 10.0 mi WSW 27.6 mph 41.4 mph N/A   Clear
4:56 AM 41.0 °F 31.9 °F 24.8 °F 53% 29.89 in 10.0 mi WSW 19.6 mph 28.8 mph N/A   Clear
5:56 AM 41.0 °F 30.9 °F 26.1 °F 55% 29.94 in 10.0 mi WSW 24.2 mph 31.1 mph N/A   Clear
6:56 AM 41.0 °F 30.5 °F 27.0 °F 57% 29.93 in 10.0 mi WSW 26.5 mph 34.5 mph N/A   Clear
7:56 AM 41.0 °F 31.1 °F 27.0 °F 57% 29.95 in 10.0 mi WSW 23.0 mph - N/A   Clear
8:56 AM 41.0 °F 33.1 °F 28.0 °F 60% 29.96 in 10.0 mi West 15.0 mph 28.8 mph N/A   Clear
9:56 AM 46.0 °F 39.3 °F 28.9 °F 51% 29.94 in 10.0 mi WSW 16.1 mph 19.6 mph N/A   Clear
10:56 AM 46.9 °F - 28.0 °F 48% 29.93 in 10.0 mi West 8.1 mph - N/A   Clear
11:56 AM 46.0 °F 38.5 °F 28.9 °F 51% 29.92 in 10.0 mi West 19.6 mph - N/A   Clear
12:56 PM 46.9 °F - 30.0 °F 52% 29.91 in 10.0 mi WSW 21.9 mph 31.1 mph N/A   Clear
1:56 PM 46.9 °F - 30.0 °F 52% 29.87 in 10.0 mi WSW 26.5 mph 35.7 mph N/A   Clear
2:56 PM 48.0 °F - 30.0 °F 50% 29.86 in 10.0 mi WSW 26.5 mph 35.7 mph N/A   Clear
3:56 PM 53.1 °F - 30.0 °F 41% 29.86 in 10.0 mi WSW 10.4 mph - N/A   Clear
4:56 PM 46.9 °F - 28.0 °F 48% 29.88 in 10.0 mi West 4.6 mph - N/A   Clear
5:56 PM 45.0 °F 38.2 °F 28.0 °F 52% 29.85 in 3.0 mi WSW 15.0 mph - N/A   Haze
6:56 PM 42.1 °F 34.5 °F 28.0 °F 58% 29.84 in 10.0 mi WSW 15.0 mph - N/A   Clear
7:56 PM 37.0 °F 30.4 °F 28.9 °F 73% 29.86 in 10.0 mi WNW 9.2 mph - N/A   Clear
8:56 PM 37.0 °F 29.3 °F 30.0 °F 76% 29.86 in 10.0 mi West 11.5 mph - N/A   Clear
9:56 PM 39.9 °F 36.7 °F 30.0 °F 68% 29.83 in 10.0 mi SW 4.6 mph - N/A   Clear
10:56 PM 36.0 °F 27.5 °F 30.0 °F 79% 29.82 in 10.0 mi NW 12.7 mph - N/A   Clear
11:56 PM 39.9 °F 31.8 °F 30.9 °F 70% 29.81 in 10.0 mi WNW 15.0 mph - N/A   Clear